This demonstration page uses our WeatherBlox Daily Observations layout. Learn more.

39.08367, -84.50855

Hourly Observations for August 15, 2019

Temp ( °F °C ) Dew Point ( °F °C ) Humidity (%) Winds ( mph kmh ) Pressure ( in mb ) Visibility ( mi km ) Precip ( " mm )
12:53 am 00:53 Clear with Mist and Fog 70 21.1 69 20.6 97 97 NE 5 7 29.91 1013 6 9.656064 0 0
1:53 am 01:53 Clear 70 21.1 69 20.6 97 97 Calm 29.91 1013 7 11.265408 0 0
2:15 am 02:15 Clear with Mist and Fog 69 20.6 69 20.6 100 100 SSW 5 7 29.91 1013 2 3.218688 0 0
2:26 am 02:26 Clear with Mist and Fog 68 20 68 20 100 100 S 5 7 29.91 1013 1.5 2.414016 0 0
2:30 am 02:30 Clear with Mist and Fog 68 20 68 20 100 100 S 3 6 29.91 1013 3 4.828032 0 0
2:53 am 02:53 Clear 69 20.6 68 20 96 96 SSE 3 6 29.91 1013 7 11.265408 0 0
3:53 am 03:53 Clear with Mist and Fog 68 20 67 19.4 96 96 S 6 9 29.91 1013 6 9.656064 0 0
4:53 am 04:53 Clear with Mist and Fog 68 20 67 19.4 96 96 Calm 29.88 1012 6 9.656064 0 0
5:15 am 05:15 Clear with Mist and Fog 67 19.4 66 18.9 97 97 Calm 29.91 1013 1.75 2.816352 0 0
5:24 am 05:24 Clear with Mist and Fog 66 18.9 65 18.3 96 96 Calm 29.91 1013 4 6.437376 0 0
5:53 am 05:53 Clear with Mist and Fog 66 18.9 66 18.9 100 100 Calm 29.88 1012 6 9.656064 0 0
6:13 am 06:13 Clear with Mist and Fog 63 17.2 63 17.2 100 100 Calm 29.91 1013 2.5 4.02336 0 0
6:22 am 06:22 Clear 65 18.3 64 17.8 97 97 S 3 6 29.91 1013 9 14.484096 0 0
6:53 am 06:53 Sunny 65 18.3 64 17.8 97 97 Calm 29.91 1013 10 16.09344 0 0
7:53 am 07:53 Sunny 68 20 66 18.9 93 93 S 5 7 29.94 1014 10 16.09344 0 0
8:53 am 08:53 Sunny 72 22.2 67 19.4 84 84 S 5 7 29.94 1014 10 16.09344 0 0
9:53 am 09:53 Mostly Sunny 76 24.4 66 18.9 72 72 WNW 5 7 29.94 1014 10 16.09344 0 0
10:53 am 10:53 Sunny 79 26.1 66 18.9 65 65 Calm 29.94 1014 10 16.09344 0 0
11:53 am 11:53 Mostly Cloudy 82 27.8 61 16.1 49 49 W 9 15 29.94 1014 10 16.09344 0 0
12:53 pm 12:53 Mostly Cloudy 82 27.8 62 16.7 51 51 NW 9 15 29.94 1014 10 16.09344 0 0
1:53 pm 13:53 Mostly Cloudy 82 27.8 62 16.7 51 51 W 7 11 29.91 1013 10 16.09344 0 0
2:53 pm 14:53 Mostly Cloudy 85 29.4 63 17.2 48 48 Calm 29.91 1013 10 16.09344 0 0
3:53 pm 15:53 Mostly Cloudy 83 28.3 61 16.1 48 48 WNW 8 13 29.91 1013 10 16.09344 0 0
4:53 pm 16:53 Mostly Cloudy 82 27.8 61 16.1 49 49 WSW 9 15 29.91 1013 10 16.09344 0 0
5:53 pm 17:53 Mostly Sunny 82 27.8 61 16.1 49 49 WSW 9 15 29.91 1013 10 16.09344 0 0
6:53 pm 18:53 Cloudy 83 28.3 61 16.1 48 48 NW 6 9 29.91 1013 10 16.09344 0 0
7:53 pm 19:53 Partly Cloudy 81 27.2 61 16.1 51 51 WNW 5 7 29.91 1013 10 16.09344 0 0
8:53 pm 20:53 Partly Cloudy 79 26.1 60 15.6 52 52 NW 7 11 29.91 1013 10 16.09344 0 0
9:53 pm 21:53 Clear 69 20.6 65 18.3 87 87 Calm 29.94 1014 10 16.09344 0 0
10:53 pm 22:53 Clear 68 20 65 18.3 90 90 Calm 29.97 1015 10 16.09344 0 0
11:53 pm 23:53 Clear 67 19.4 65 18.3 93 93 Calm 29.94 1014 10 16.09344 0 0

Powered by AerisWeather